Tracking 20040 objects as of 18-Nov-2019
Live streaming from Space Station
objects crossing your sky now

IRIDIUM 69

Track IRIDIUM 69 now!
10-day predictions
IRIDIUM 69 is classified as:


NORAD ID: 25319
Int'l Code: 1998-026A
Perigee: 769.2 km
Apogee: 769.9 km
Inclination: 86.4 °
Period: 100.1 minutes
Semi major axis: 7140 km
RCS: 4.3416 m2 (large)
Launch date: May 2, 1998
Source: United States (US)
Launch site: Taiyaun Space Center, China (TSC)
aabbcc
Your satellite tracking list
Your tracking list is empty




NASA's NSSDC Master Catalog

Two Line Element Set (TLE):
1 25319U 98026A   19321.86981029 +.00000089 +00000-0 +22575-4 0  9996
2 25319 086.4031 233.9055 0000486 161.8848 198.2368 14.38813823129858
Source of the keplerian elements: AFSPC